21-10-2023, 00:00:09,    184,    0.1,    9.7,   0.00,   0.00,  979.3,    0.3, -999.0
21-10-2023, 00:00:18,    183,    0.0,    9.7,   0.00,   0.00,  979.4,    0.4, -999.0
21-10-2023, 00:00:29,    184,    0.0,    9.7,   0.00,   0.00,  979.3,    0.3, -999.0
21-10-2023, 00:00:39,    183,    0.0,    9.7,   0.00,   0.00,  979.3,    0.4, -999.0
21-10-2023, 00:00:48,    184,    0.0,    9.7,   0.00,   0.00,  979.3,    0.5, -999.0
21-10-2023, 00:00:58,    183,    0.0,    9.7,   0.00,   0.00,  979.3,    0.5, -999.0
21-10-2023, 00:01:09,    183,    0.0,    9.7,   0.00,   0.00,  979.3,    0.4, -999.0
21-10-2023, 00:01:18,    184,    0.0,    9.7,   0.00,   0.00,  979.3,    0.2, -999.0
21-10-2023, 00:01:28,    183,    0.0,    9.7,   0.00,   0.00,  979.3,    0.3, -999.0
21-10-2023, 00:01:38,    184,    0.0,    9.7,   0.00,   0.00,  979.3,    0.6, -999.0
21-10-2023, 00:01:48,    185,    0.0,    9.7,   0.00,   0.00,  979.3,    0.2, -999.0
21-10-2023, 00:01:58,    183,    0.0,    9.7,   0.00,   0.00,  979.3,    0.4, -999.0
21-10-2023, 00:02:08,    184,    0.5,    9.8,   0.00,   0.00,  979.4,    0.5, -999.0
21-10-2023, 00:02:18,    184,    0.8,    9.8,   0.00,   0.00,  979.5,    0.8, -999.0
21-10-2023, 00:02:28,    184,    0.0,    9.7,   0.00,   0.00,  979.3,    0.5, -999.0
21-10-2023, 00:02:38,    183,    0.0,    9.7,   0.00,   0.00,  979.3,    0.4, -999.0
21-10-2023, 00:02:48,    182,    0.0,    9.7,   0.00,   0.00,  979.3,    0.6, -999.0
21-10-2023, 00:02:58,    183,    0.0,    9.7,   0.00,   0.00,  979.3,    0.5, -999.0
21-10-2023, 00:03:08,    183,    0.0,    9.7,   0.00,   0.00,  979.3,    0.5, -999.0
21-10-2023, 00:03:18,    184,    0.0,    9.7,   0.00,   0.00,  979.3,    0.6, -999.0
21-10-2023, 00:03:28,    183,    0.0,    9.7,   0.00,   0.00,  979.3,    0.3, -999.0
21-10-2023, 00:03:38,    183,    0.0,    9.7,   0.00,   0.00,  979.3,    0.4, -999.0
21-10-2023, 00:03:48,    184,    0.4,    9.8,   0.00,   0.00,  979.5,    0.4, -999.0
21-10-2023, 00:03:58,    183,    0.1,    9.8,   0.00,   0.00,  979.4,    0.7, -999.0
21-10-2023, 00:04:08,    184,    0.0,    9.7,   0.00,   0.00,  979.3,    0.6, -999.0
21-10-2023, 00:04:18,    183,    0.0,    9.7,   0.00,   0.00,  979.3,    0.5, -999.0
21-10-2023, 00:04:28,    183,    0.0,    9.7,   0.00,   0.00,  979.3,    0.5, -999.0
21-10-2023, 00:04:38,    184,    0.2,    9.7,   0.00,   0.00,  979.4,    0.3, -999.0
21-10-2023, 00:04:48,    184,    0.7,    9.8,   0.00,   0.00,  979.5,    0.7, -999.0
21-10-2023, 00:04:58,    183,    0.2,    9.7,   0.00,   0.00,  979.4,    0.4, -999.0
21-10-2023, 00:05:08,    183,    0.1,    9.7,   0.00,   0.00,  979.3,    0.6, -999.0
21-10-2023, 00:05:18,    183,    0.0,    9.7,   0.00,   0.00,  979.3,    0.5, -999.0
21-10-2023, 00:05:28,    183,    0.0,    9.7,   0.00,   0.00,  979.3,    0.4, -999.0
21-10-2023, 00:05:38,    183,    0.0,    9.7,   0.00,   0.00,  979.3,    0.3, -999.0
21-10-2023, 00:05:48,    183,    0.0,    9.7,   0.00,   0.00,  979.3,    0.5, -999.0
21-10-2023, 00:05:58,    183,    0.0,    9.7,   0.00,   0.00,  979.3,    0.3, -999.0
21-10-2023, 00:06:08,    182,    0.0,    9.7,   0.00,   0.00,  979.3,    0.5, -999.0
21-10-2023, 00:06:18,    183,    0.0,    9.7,   0.00,   0.00,  979.3,    0.5, -999.0
21-10-2023, 00:06:28,    183,    0.3,    9.8,   0.00,   0.00,  979.4,    0.5, -999.0
21-10-2023, 00:06:38,    183,    0.4,    9.8,   0.00,   0.00,  979.4,    0.6, -999.0
21-10-2023, 00:06:47,    183,    0.4,    9.7,   0.00,   0.00,  979.4,    0.5, -999.0
21-10-2023, 00:06:58,    184,    0.6,    9.9,   0.00,   0.00,  979.4,    0.5, -999.0
21-10-2023, 00:07:08,    183,    0.3,    9.8,   0.00,   0.00,  979.4,    0.6, -999.0
21-10-2023, 00:07:17,    183,    0.0,    9.7,   0.00,   0.00,  979.3,    0.3, -999.0
21-10-2023, 00:07:27,    183,    0.9,    9.7,   0.00,   0.00,  979.4,    0.5, -999.0
21-10-2023, 00:07:38,    182,    0.9,    9.7,   0.00,   0.00,  979.4,    0.6, -999.0
21-10-2023, 00:07:47,    182,    0.0,    9.6,   0.00,   0.00,  979.3,    0.3, -999.0
21-10-2023, 00:07:57,    183,    0.1,    9.6,   0.00,   0.00,  979.4,    0.5, -999.0
21-10-2023, 00:08:07,    182,    0.2,    9.7,   0.00,   0.00,  979.4,    0.6, -999.0
21-10-2023, 00:08:18,    182,    0.0,    9.6,   0.00,   0.00,  979.3,    0.3, -999.0
21-10-2023, 00:08:27,    184,    0.1,    9.7,   0.00,   0.00,  979.4,    0.5, -999.0
21-10-2023, 00:08:37,    183,    0.0,    9.7,   0.00,   0.00,  979.3,    0.5, -999.0
21-10-2023, 00:08:48,    184,    0.0,    9.6,   0.00,   0.00,  979.3,    0.4, -999.0
21-10-2023, 00:08:57,    183,    0.0,    9.6,   0.00,   0.00,  979.3,    0.3, -999.0
21-10-2023, 00:09:07,    182,    0.0,    9.7,   0.00,   0.00,  979.4,    0.4, -999.0
21-10-2023, 00:09:17,    182,    0.0,    9.7,   0.00,   0.00,  979.3,    0.8, -999.0
21-10-2023, 00:09:27,    182,    0.0,    9.7,   0.00,   0.00,  979.3,    0.5, -999.0
21-10-2023, 00:09:37,    182,    0.0,    9.7,   0.00,   0.00,  979.3,    0.7, -999.0
21-10-2023, 00:09:47,    182,    0.0,    9.7,   0.00,   0.00,  979.3,    0.4, -999.0
21-10-2023, 00:09:57,    183,    0.1,    9.7,   0.00,   0.00,  979.3,    0.5, -999.0
21-10-2023, 00:10:07,    183,    0.2,    9.8,   0.00,   0.00,  979.4,    0.5, -999.0
21-10-2023, 00:10:17,    182,    0.6,    9.8,   0.00,   0.00,  979.4,    0.4, -999.0
21-10-2023, 00:10:27,    182,    0.2,    9.7,   0.00,   0.00,  979.4,    0.4, -999.0
21-10-2023, 00:10:37,    182,    0.0,    9.6,   0.00,   0.00,  979.3,    0.4, -999.0
21-10-2023, 00:10:47,    182,    0.0,    9.7,   0.00,   0.00,  979.3,    0.5, -999.0
21-10-2023, 00:10:57,    182,    0.1,    9.7,   0.00,   0.00,  979.3,    0.2, -999.0
21-10-2023, 00:11:07,    183,    0.0,    9.7,   0.00,   0.00,  979.3,    0.5, -999.0
21-10-2023, 00:11:17,    182,    0.0,    9.7,   0.00,   0.00,  979.3,    0.4, -999.0
21-10-2023, 00:11:27,    183,    0.0,    9.7,   0.00,   0.00,  979.3,    0.5, -999.0
21-10-2023, 00:11:37,    183,    0.6,    9.7,   0.00,   0.00,  979.4,    0.7, -999.0
21-10-2023, 00:11:47,    182,    0.4,    9.7,   0.00,   0.00,  979.4,    0.7, -999.0
21-10-2023, 00:11:57,    182,    0.0,    9.7,   0.00,   0.00,  979.3,    0.4, -999.0
21-10-2023, 00:12:07,    182,    0.0,    9.7,   0.00,   0.00,  979.3,    0.6, -999.0
21-10-2023, 00:12:17,    179,    1.0,    9.7,   0.00,   0.00,  979.4,    0.4, -999.0
21-10-2023, 00:12:27,    146,    1.3,    9.7,   0.00,   0.00,  979.4,    0.6, -999.0
21-10-2023, 00:12:37,    146,    0.6,    9.7,   0.00,   0.00,  979.4,    0.4, -999.0
21-10-2023, 00:12:47,    146,    0.5,    9.7,   0.00,   0.00,  979.4,    0.3, -999.0
21-10-2023, 00:12:57,    146,    0.6,    9.7,   0.00,   0.00,  979.4,    0.6, -999.0
21-10-2023, 00:13:07,    146,    0.0,    9.6,   0.00,   0.00,  979.3,    0.4, -999.0
21-10-2023, 00:13:16,    146,    0.0,    9.6,   0.00,   0.00,  979.3,    0.6, -999.0
21-10-2023, 00:13:27,    146,    0.0,    9.6,   0.00,   0.00,  979.3,    0.5, -999.0
21-10-2023, 00:13:37,    147,    0.1,    9.7,   0.00,   0.00,  979.3,    0.7, -999.0
21-10-2023, 00:13:47,    146,    0.1,    9.8,   0.00,   0.00,  979.4,    0.3, -999.0
21-10-2023, 00:13:56,    146,    0.0,    9.7,   0.00,   0.00,  979.3,    0.7, -999.0
21-10-2023, 00:14:07,    146,    0.0,    9.8,   0.00,   0.00,  979.3,    0.0, -999.0
21-10-2023, 00:14:17,    146,    0.2,    9.8,   0.00,   0.00,  979.3,    0.1, -999.0
21-10-2023, 00:14:26,    146,    1.0,    9.9,   0.00,   0.00,  979.4,    0.3, -999.0
21-10-2023, 00:14:36,    147,    0.3,    9.7,   0.00,   0.00,  979.3,    0.8, -999.0
21-10-2023, 00:14:47,    146,    0.0,    9.7,   0.00,   0.00,  979.3,    0.7, -999.0
21-10-2023, 00:14:56,    144,    0.0,    9.7,   0.00,   0.00,  979.3,    0.2, -999.0
21-10-2023, 00:15:06,    146,    0.0,    9.6,   0.00,   0.00,  979.3,    0.8, -999.0
21-10-2023, 00:15:17,    146,    0.7,    9.7,   0.00,   0.00,  979.3,    0.5, -999.0
21-10-2023, 00:15:26,    146,    0.5,    9.8,   0.00,   0.00,  979.3,    0.7, -999.0
21-10-2023, 00:15:36,    146,    0.0,    9.7,   0.00,   0.00,  979.2,    0.5, -999.0
21-10-2023, 00:15:46,    147,    0.0,    9.7,   0.00,   0.00,  979.3,    0.0, -999.0
21-10-2023, 00:15:57,    146,    0.0,    9.7,   0.00,   0.00,  979.2,    0.0, -999.0
21-10-2023, 00:16:06,    146,    0.0,    9.7,   0.00,   0.00,  979.3,    0.1, -999.0
21-10-2023, 00:16:16,    146,    0.0,    9.7,   0.00,   0.00,  979.3,    0.7, -999.0
21-10-2023, 00:16:26,    145,    0.0,    9.6,   0.00,   0.00,  979.3,    0.5, -999.0
21-10-2023, 00:16:36,    146,    0.1,    9.6,   0.00,   0.00,  979.3,    0.5, -999.0
21-10-2023, 00:16:46,    146,    0.0,    9.7,   0.00,   0.00,  979.3,    0.4, -999.0
21-10-2023, 00:16:56,    146,    0.0,    9.7,   0.00,   0.00,  979.3,    0.3, -999.0
21-10-2023, 00:17:06,    146,    0.0,    9.6,   0.00,   0.00,  979.3,    0.4, -999.0
21-10-2023, 00:17:16,    146,    0.0,    9.6,   0.00,   0.00,  979.2,    0.5, -999.0
21-10-2023, 00:17:26,    146,    0.1,    9.6,   0.00,   0.00,  979.3,    0.6, -999.0
21-10-2023, 00:17:36,    146,    0.6,    9.7,   0.00,   0.00,  979.3,    0.5, -999.0
21-10-2023, 00:17:46,    146,    0.0,    9.6,   0.00,   0.00,  979.3,    0.4, -999.0
21-10-2023, 00:17:56,    146,    0.0,    9.5,   0.00,   0.00,  979.3,    0.4, -999.0
21-10-2023, 00:18:06,    147,    0.1,    9.7,   0.00,   0.00,  979.3,    0.4, -999.0
21-10-2023, 00:18:16,    146,    0.6,    9.7,   0.00,   0.00,  979.3,    0.7, -999.0
21-10-2023, 00:18:26,    146,    0.4,    9.7,   0.00,   0.00,  979.3,    0.5, -999.0
21-10-2023, 00:18:36,    146,    1.3,    9.7,   0.00,   0.00,  979.3,    0.5, -999.0
21-10-2023, 00:18:46,    146,    0.3,    9.6,   0.00,   0.00,  979.3,    0.7, -999.0
21-10-2023, 00:18:56,    146,    0.0,    9.6,   0.00,   0.00,  979.2,    0.5, -999.0
21-10-2023, 00:19:06,    146,    0.0,    9.6,   0.00,   0.00,  979.3,    0.5, -999.0
21-10-2023, 00:19:16,    146,    0.0,    9.6,   0.00,   0.00,  979.2,    0.0, -999.0
21-10-2023, 00:19:26,    146,    0.0,    9.6,   0.00,   0.00,  979.3,    0.3, -999.0
21-10-2023, 00:19:36,    146,    0.0,    9.6,   0.00,   0.00,  979.3,    0.5, -999.0
21-10-2023, 00:19:46,    146,    0.0,    9.6,   0.00,   0.00,  979.3,    0.6, -999.0
21-10-2023, 00:19:56,    146,    0.0,    9.6,   0.00,   0.00,  979.3,    0.4, -999.0
21-10-2023, 00:20:06,    146,    0.0,    9.6,   0.00,   0.00,  979.3,    0.5, -999.0
21-10-2023, 00:20:16,    146,    0.0,    9.7,   0.00,   0.00,  979.3,    0.5, -999.0
21-10-2023, 00:20:25,    146,    0.0,    9.7,   0.00,   0.00,  979.2,    0.4, -999.0
21-10-2023, 00:20:36,    146,    0.0,    9.7,   0.00,   0.00,  979.2,    0.4, -999.0
21-10-2023, 00:20:46,    146,    0.0,    9.6,   0.00,   0.00,  979.3,    0.5, -999.0
21-10-2023, 00:20:55,    146,    0.0,    9.7,   0.00,   0.00,  979.3,    0.6, -999.0
21-10-2023, 00:21:06,    145,    0.0,    9.6,   0.00,   0.00,  979.3,    0.4, -999.0
21-10-2023, 00:21:16,    146,    0.0,    9.6,   0.00,   0.00,  979.3,    0.5, -999.0
21-10-2023, 00:21:26,    146,    0.0,    9.6,   0.00,   0.00,  979.3,    0.6, -999.0
21-10-2023, 00:21:35,    146,    0.0,    9.6,   0.00,   0.00,  979.3,    0.3, -999.0
21-10-2023, 00:21:46,    146,    0.0,    9.5,   0.00,   0.00,  979.3,    0.6, -999.0
21-10-2023, 00:21:56,    146,    0.0,    9.6,   0.00,   0.00,  979.3,    0.5, -999.0
21-10-2023, 00:22:05,    146,    0.0,    9.5,   0.00,   0.00,  979.3,    0.5, -999.0
21-10-2023, 00:22:15,    146,    0.0,    9.6,   0.00,   0.00,  979.3,    0.4, -999.0
21-10-2023, 00:22:25,    146,    0.0,    9.6,   0.00,   0.00,  979.3,    0.4, -999.0
21-10-2023, 00:22:36,    146,    0.0,    9.6,   0.00,   0.00,  979.3,    0.5, -999.0
21-10-2023, 00:22:45,    146,    0.0,    9.6,   0.00,   0.00,  979.3,    0.3, -999.0
21-10-2023, 00:22:55,    146,    0.0,    9.6,   0.00,   0.00,  979.3,    0.4, -999.0
21-10-2023, 00:23:06,    146,    0.3,    9.6,   0.00,   0.00,  979.4,    0.4, -999.0
21-10-2023, 00:23:15,    145,    0.4,    9.7,   0.00,   0.00,  979.4,    0.4, -999.0
21-10-2023, 00:23:25,    146,    0.0,    9.6,   0.00,   0.00,  979.3,    0.7, -999.0
21-10-2023, 00:23:35,    146,    0.0,    9.6,   0.00,   0.00,  979.3,    0.3, -999.0
21-10-2023, 00:23:45,    146,    0.1,    9.7,   0.00,   0.00,  979.4,    0.6, -999.0
21-10-2023, 00:23:55,    146,    0.0,    9.6,   0.00,   0.00,  979.3,    0.6, -999.0
21-10-2023, 00:24:05,    146,    0.0,    9.6,   0.00,   0.00,  979.3,    0.3, -999.0
21-10-2023, 00:24:15,    146,    0.0,    9.6,   0.00,   0.00,  979.3,    0.5, -999.0
21-10-2023, 00:24:25,    146,    0.2,    9.6,   0.00,   0.00,  979.4,    0.3, -999.0
21-10-2023, 00:24:35,    145,    0.0,    9.7,   0.00,   0.00,  979.3,    0.2, -999.0
21-10-2023, 00:24:45,    146,    0.2,    9.7,   0.00,   0.00,  979.4,    0.4, -999.0
21-10-2023, 00:24:55,    146,    0.3,    9.7,   0.00,   0.00,  979.4,    0.8, -999.0
21-10-2023, 00:25:05,    146,    0.2,    9.6,   0.00,   0.00,  979.4,    0.4, -999.0
21-10-2023, 00:25:15,    146,    0.0,    9.6,   0.00,   0.00,  979.3,    0.5, -999.0
21-10-2023, 00:25:25,    146,    0.0,    9.6,   0.00,   0.00,  979.3,    0.3, -999.0
21-10-2023, 00:25:35,    146,    0.0,    9.6,   0.00,   0.00,  979.3,    0.6, -999.0
21-10-2023, 00:25:45,    146,    0.0,    9.6,   0.00,   0.00,  979.3,    0.5, -999.0
21-10-2023, 00:25:55,    146,    0.0,    9.7,   0.00,   0.00,  979.3,    0.3, -999.0
21-10-2023, 00:26:05,    146,    0.0,    9.7,   0.00,   0.00,  979.3,    0.3, -999.0
21-10-2023, 00:26:15,    146,    0.0,    9.6,   0.00,   0.00,  979.3,    0.5, -999.0
21-10-2023, 00:26:25,    146,    0.0,    9.6,   0.00,   0.00,  979.3,    0.6, -999.0
21-10-2023, 00:26:35,    146,    0.0,    9.6,   0.00,   0.00,  979.3,    0.3, -999.0
21-10-2023, 00:26:45,    146,    0.0,    9.7,   0.00,   0.00,  979.3,    0.4, -999.0
21-10-2023, 00:26:55,    146,    0.0,    9.6,   0.00,   0.00,  979.3,    0.5, -999.0
21-10-2023, 00:27:05,    146,    0.0,    9.6,   0.00,   0.00,  979.3,    0.1, -999.0
21-10-2023, 00:27:15,    146,    0.0,    9.6,   0.00,   0.00,  979.3,    0.6, -999.0
21-10-2023, 00:27:25,    146,    0.0,    9.6,   0.00,   0.00,  979.3,    0.5, -999.0
21-10-2023, 00:27:35,    146,    0.2,    9.6,   0.00,   0.00,  979.4,    0.5, -999.0
21-10-2023, 00:27:45,    146,    0.0,    9.5,   0.00,   0.00,  979.3,    0.4, -999.0
21-10-2023, 00:27:55,    146,    0.8,    9.6,   0.00,   0.00,  979.4,    0.3, -999.0
21-10-2023, 00:28:04,    145,    0.0,    9.6,   0.00,   0.00,  979.3,    0.4, -999.0
21-10-2023, 00:28:15,    146,    0.0,    9.6,   0.00,   0.00,  979.3,    0.4, -999.0
21-10-2023, 00:28:25,    146,    0.0,    9.5,   0.00,   0.00,  979.4,    0.4, -999.0
21-10-2023, 00:28:34,    146,    0.7,    9.6,   0.00,   0.00,  979.5,    0.4, -999.0
21-10-2023, 00:28:44,    146,    0.0,    9.4,   0.00,   0.00,  979.3,    0.4, -999.0
21-10-2023, 00:28:55,    146,    0.0,    9.5,   0.00,   0.00,  979.3,    0.4, -999.0
21-10-2023, 00:29:05,    146,    0.3,    9.6,   0.00,   0.00,  979.4,    0.3, -999.0
21-10-2023, 00:29:14,    146,    0.0,    9.5,   0.00,   0.00,  979.3,    0.5, -999.0
21-10-2023, 00:29:24,    146,    0.1,    9.5,   0.00,   0.00,  979.4,    0.4, -999.0
21-10-2023, 00:29:35,    145,    0.0,    9.5,   0.00,   0.00,  979.3,    0.6, -999.0
21-10-2023, 00:29:44,    145,    0.0,    9.5,   0.00,   0.00,  979.3,    0.5, -999.0
21-10-2023, 00:29:54,    145,    0.0,    9.6,   0.00,   0.00,  979.3,    0.4, -999.0
21-10-2023, 00:30:04,    146,    0.0,    9.5,   0.00,   0.00,  979.3,    0.5, -999.0
21-10-2023, 00:30:14,    146,    0.0,    9.6,   0.00,   0.00,  979.3,    0.3, -999.0
21-10-2023, 00:30:24,    146,    0.0,    9.5,   0.00,   0.00,  979.3,    0.4, -999.0
21-10-2023, 00:30:34,    145,    0.0,    9.6,   0.00,   0.00,  979.3,    0.3, -999.0
21-10-2023, 00:30:44,    146,    0.0,    9.5,   0.00,   0.00,  979.3,    0.4, -999.0
21-10-2023, 00:30:54,    146,    0.0,    9.6,   0.00,   0.00,  979.3,    0.4, -999.0
21-10-2023, 00:31:04,    146,    0.2,    9.6,   0.00,   0.00,  979.4,    0.4, -999.0
21-10-2023, 00:31:14,    146,    0.8,    9.7,   0.00,   0.00,  979.5,    0.4, -999.0
21-10-2023, 00:31:24,    145,    0.0,    9.6,   0.00,   0.00,  979.3,    0.4, -999.0
21-10-2023, 00:31:34,    146,    0.9,    9.6,   0.00,   0.00,  979.4,    0.4, -999.0
21-10-2023, 00:31:44,    146,    1.5,    9.6,   0.00,   0.00,  979.5,    0.4, -999.0
21-10-2023, 00:31:54,    145,    0.6,    9.6,   0.00,   0.00,  979.5,    0.5, -999.0
21-10-2023, 00:32:04,    145,    0.0,    9.6,   0.00,   0.00,  979.4,    0.4, -999.0
21-10-2023, 00:32:14,    146,    0.0,    9.5,   0.00,   0.00,  979.3,    0.3, -999.0
21-10-2023, 00:32:24,    145,    0.0,    9.5,   0.00,   0.00,  979.3,    0.4, -999.0
21-10-2023, 00:32:34,    145,    0.0,    9.5,   0.00,   0.00,  979.3,    0.5, -999.0
21-10-2023, 00:32:44,    145,    0.0,    9.5,   0.00,   0.00,  979.3,    0.3, -999.0
21-10-2023, 00:32:54,    146,    0.0,    9.5,   0.00,   0.00,  979.3,    0.4, -999.0
21-10-2023, 00:33:04,    146,    0.0,    9.6,   0.00,   0.00,  979.3,    0.4, -999.0
21-10-2023, 00:33:14,    146,    0.0,    9.6,   0.00,   0.00,  979.3,    0.4, -999.0
21-10-2023, 00:33:24,    145,    0.0,    9.6,   0.00,   0.00,  979.3,    0.5, -999.0
21-10-2023, 00:33:34,    145,    0.0,    9.6,   0.00,   0.00,  979.3,    0.5, -999.0
21-10-2023, 00:33:44,    146,    0.0,    9.5,   0.00,   0.00,  979.3,    0.5, -999.0
21-10-2023, 00:33:54,    146,    0.0,    9.5,   0.00,   0.00,  979.3,    0.5, -999.0
21-10-2023, 00:34:04,    146,    0.0,    9.5,   0.00,   0.00,  979.3,    0.5, -999.0
21-10-2023, 00:34:14,    145,    0.0,    9.6,   0.00,   0.00,  979.3,    0.6, -999.0
21-10-2023, 00:34:24,    145,    0.0,    9.6,   0.00,   0.00,  979.3,    0.6, -999.0
21-10-2023, 00:34:33,    146,    0.0,    9.6,   0.00,   0.00,  979.3,    0.5, -999.0
21-10-2023, 00:34:44,    145,    0.0,    9.6,   0.00,   0.00,  979.3,    0.3, -999.0
21-10-2023, 00:34:54,    145,    0.0,    9.6,   0.00,   0.00,  979.3,    0.4, -999.0
21-10-2023, 00:35:04,    145,    0.0,    9.7,   0.00,   0.00,  979.3,    0.6, -999.0
21-10-2023, 00:35:13,    145,    0.0,    9.7,   0.00,   0.00,  979.3,    0.3, -999.0
21-10-2023, 00:35:24,    145,    0.0,    9.6,   0.00,   0.00,  979.3,    0.4, -999.0
21-10-2023, 00:35:34,    146,    0.7,    9.7,   0.00,   0.00,  979.4,    0.7, -999.0
21-10-2023, 00:35:43,    146,    0.4,    9.7,   0.00,   0.00,  979.4,    0.4, -999.0
21-10-2023, 00:35:54,    146,    0.5,    9.6,   0.00,   0.00,  979.5,    0.6, -999.0
21-10-2023, 00:36:04,    145,    0.0,    9.6,   0.00,   0.00,  979.4,    0.2, -999.0
21-10-2023, 00:36:13,    145,    0.0,    9.5,   0.00,   0.00,  979.3,    0.5, -999.0
21-10-2023, 00:36:23,    145,    0.0,    9.5,   0.00,   0.00,  979.3,    0.3, -999.0
21-10-2023, 00:36:34,    145,    0.0,    9.6,   0.00,   0.00,  979.3,    0.4, -999.0
21-10-2023, 00:36:43,    145,    0.0,    9.6,   0.00,   0.00,  979.3,    0.5, -999.0
21-10-2023, 00:36:53,    145,    0.0,    9.6,   0.00,   0.00,  979.3,    0.3, -999.0
21-10-2023, 00:37:03,    146,    0.0,    9.6,   0.00,   0.00,  979.3,    0.4, -999.0
21-10-2023, 00:37:14,    145,    0.0,    9.5,   0.00,   0.00,  979.3,    0.5, -999.0
21-10-2023, 00:37:23,    145,    0.0,    9.6,   0.00,   0.00,  979.3,    1.0, -999.0
21-10-2023, 00:37:33,    146,    0.0,    9.6,   0.00,   0.00,  979.3,    0.5, -999.0
21-10-2023, 00:37:43,    146,    0.1,    9.6,   0.00,   0.00,  979.4,    0.5, -999.0
21-10-2023, 00:37:53,    146,    1.2,    9.7,   0.00,   0.00,  979.5,    0.6, -999.0
21-10-2023, 00:38:03,    145,    0.6,    9.7,   0.00,   0.00,  979.5,    0.5, -999.0
21-10-2023, 00:38:13,    145,    0.4,    9.6,   0.00,   0.00,  979.4,    0.5, -999.0
21-10-2023, 00:38:23,    146,    0.2,    9.5,   0.00,   0.00,  979.4,    0.4, -999.0
21-10-2023, 00:38:33,    146,    0.8,    9.6,   0.00,   0.00,  979.5,    0.4, -999.0
21-10-2023, 00:38:43,    145,    0.0,    9.6,   0.00,   0.00,  979.4,    0.4, -999.0
21-10-2023, 00:38:53,    146,    0.0,    9.5,   0.00,   0.00,  979.4,    0.2, -999.0
21-10-2023, 00:39:03,    145,    0.0,    9.5,   0.00,   0.00,  979.3,    0.6, -999.0
21-10-2023, 00:39:13,    145,    0.0,    9.5,   0.00,   0.00,  979.4,    0.4, -999.0
21-10-2023, 00:39:23,    146,    0.0,    9.5,   0.00,   0.00,  979.4,    0.5, -999.0
21-10-2023, 00:39:33,    145,    0.0,    9.5,   0.00,   0.00,  979.4,    0.5, -999.0
21-10-2023, 00:39:43,    146,    0.0,    9.6,   0.00,   0.00,  979.4,    0.6, -999.0
21-10-2023, 00:39:53,    145,    0.0,    9.6,   0.00,   0.00,  979.4,    0.6, -999.0
21-10-2023, 00:40:03,    145,    0.0,    9.6,   0.00,   0.00,  979.4,    0.4, -999.0
21-10-2023, 00:40:13,    145,    0.1,    9.6,   0.00,   0.00,  979.4,    0.4, -999.0
21-10-2023, 00:40:23,    145,    0.0,    9.6,   0.00,   0.00,  979.4,    0.5, -999.0
21-10-2023, 00:40:33,    145,    0.0,    9.5,   0.00,   0.00,  979.4,    0.3, -999.0
21-10-2023, 00:40:43,    145,    0.0,    9.5,   0.00,   0.00,  979.4,    0.7, -999.0
21-10-2023, 00:40:53,    145,    0.2,    9.5,   0.00,   0.00,  979.4,    0.1, -999.0
21-10-2023, 00:41:03,    179,    0.9,    9.6,   0.00,   0.00,  979.5,    0.3, -999.0
21-10-2023, 00:41:13,    179,    0.0,    9.5,   0.00,   0.00,  979.4,    0.6, -999.0
21-10-2023, 00:41:23,    180,    0.1,    9.5,   0.00,   0.00,  979.4,    0.4, -999.0
21-10-2023, 00:41:33,    180,    0.0,    9.5,   0.00,   0.00,  979.3,    0.3, -999.0
21-10-2023, 00:41:43,    180,    0.7,    9.5,   0.00,   0.00,  979.5,    0.5, -999.0
21-10-2023, 00:41:53,    179,    0.7,    9.6,   0.00,   0.00,  979.5,    0.5, -999.0
21-10-2023, 00:42:03,    179,    0.0,    9.5,   0.00,   0.00,  979.3,    0.5, -999.0
21-10-2023, 00:42:12,    179,    0.0,    9.5,   0.00,   0.00,  979.3,    0.4, -999.0
21-10-2023, 00:42:23,    179,    0.0,    9.5,   0.00,   0.00,  979.3,    0.6, -999.0
21-10-2023, 00:42:33,    179,    0.0,    9.5,   0.00,   0.00,  979.3,    0.3, -999.0
21-10-2023, 00:42:42,    180,    0.0,    9.5,   0.00,   0.00,  979.3,    0.5, -999.0
21-10-2023, 00:42:53,    179,    0.0,    9.5,   0.00,   0.00,  979.3,    0.5, -999.0
21-10-2023, 00:43:03,    179,    0.0,    9.4,   0.00,   0.00,  979.4,    0.5, -999.0
21-10-2023, 00:43:13,    179,    0.0,    9.4,   0.00,   0.00,  979.3,    0.4, -999.0
21-10-2023, 00:43:22,    180,    0.0,    9.5,   0.00,   0.00,  979.4,    0.7, -999.0
21-10-2023, 00:43:33,    180,    0.0,    9.5,   0.00,   0.00,  979.4,    0.5, -999.0
21-10-2023, 00:43:43,    179,    0.0,    9.5,   0.00,   0.00,  979.3,    0.5, -999.0
21-10-2023, 00:43:52,    180,    0.0,    9.5,   0.00,   0.00,  979.3,    0.3, -999.0
21-10-2023, 00:44:02,    180,    0.0,    9.6,   0.00,   0.00,  979.3,    0.4, -999.0
21-10-2023, 00:44:13,    179,    0.0,    9.6,   0.00,   0.00,  979.3,    0.3, -999.0
21-10-2023, 00:44:22,    179,    0.0,    9.6,   0.00,   0.00,  979.3,    0.4, -999.0
21-10-2023, 00:44:32,    180,    0.0,    9.6,   0.00,   0.00,  979.3,    0.4, -999.0
21-10-2023, 00:44:42,    179,    0.0,    9.6,   0.00,   0.00,  979.4,    0.5, -999.0
21-10-2023, 00:44:52,    179,    0.0,    9.6,   0.00,   0.00,  979.4,    0.3, -999.0
21-10-2023, 00:45:02,    179,    0.1,    9.6,   0.00,   0.00,  979.4,    0.3, -999.0
21-10-2023, 00:45:12,    179,    0.0,    9.5,   0.00,   0.00,  979.3,    0.5, -999.0
21-10-2023, 00:45:22,    179,    0.0,    9.5,   0.00,   0.00,  979.3,    0.5, -999.0
21-10-2023, 00:45:32,    159,    0.7,    9.6,   0.00,   0.00,  979.5,    0.7, -999.0
21-10-2023, 00:45:42,    158,    0.9,    9.5,   0.00,   0.00,  979.5,    0.6, -999.0
21-10-2023, 00:45:52,    158,    0.7,    9.5,   0.00,   0.00,  979.5,    0.6, -999.0
21-10-2023, 00:46:02,    159,    0.8,    9.6,   0.00,   0.00,  979.5,    0.5, -999.0
21-10-2023, 00:46:12,    158,    0.2,    9.5,   0.00,   0.00,  979.4,    0.5, -999.0
21-10-2023, 00:46:22,    157,    0.0,    9.5,   0.00,   0.00,  979.4,    0.5, -999.0
21-10-2023, 00:46:32,    158,    0.0,    9.5,   0.00,   0.00,  979.4,    0.5, -999.0
21-10-2023, 00:46:42,    158,    0.0,    9.5,   0.00,   0.00,  979.3,    0.3, -999.0
21-10-2023, 00:46:52,    158,    0.0,    9.5,   0.00,   0.00,  979.4,    0.5, -999.0